Theta_e
324 332 337 341 344 346 347 348 347 347 347 347 348 348 348 348 348 348 348 348 347 348 349 349 350 350 349 347 347 346 346 346 346 346 346 350 353 352 352 354 354 349 353
326 329 334 336 339 342 343 345 346 346 346 346 345 345 344 344 346 345 345 346 347 347 347 347 348 348 348 348 348 347 348 349 349 348 346 345 351 353 351 353 353 350 354
323 326 330 332 334 336 337 340 341 341 342 343 343 343 342 341 342 342 341 341 343 345 346 346 347 347 347 347 347 347 347 350 349 347 345 337 342 354 352 353 354 354 353
320 324 325 328 329 331 333 336 335 335 337 338 339 339 338 337 336 337 337 338 338 340 342 344 345 345 345 345 346 346 346 347 348 346 343 334 338 353 350 350 353 355 355
319 321 321 324 325 326 328 329 328 329 331 330 331 333 332 328 328 330 331 331 332 333 336 337 339 340 339 342 343 344 344 346 346 342 341 342 339 344 349 350 352 352 351
316 318 318 320 321 322 323 323 322 322 324 324 328 326 323 322 322 323 323 324 325 327 329 332 334 334 333 336 339 341 342 344 343 338 338 340 343 346 347 351 352 351 349
312 314 315 316 317 317 318 318 318 318 318 319 320 319 317 317 317 317 318 319 320 321 322 326 329 328 327 329 332 334 334 334 338 337 337 339 340 347 345 345 350 352 352
306 311 310 311 312 313 313 313 314 315 315 314 314 314 313 312 313 313 314 315 316 316 317 320 320 320 321 322 323 324 323 323 331 335 337 338 340 344 343 345 347 350 352
305 305 306 307 308 309 309 309 310 311 311 311 310 309 309 308 308 309 309 312 313 314 314 315 316 316 316 316 316 317 317 317 320 332 333 335 338 340 342 343 344 347 350
303 303 304 304 304 306 306 306 307 308 307 307 306 304 303 306 305 305 305 307 309 309 311 312 312 313 313 313 312 312 314 315 321 332 336 335 338 339 341 341 342 343 345
301 302 303 303 304 304 303 302 304 304 303 302 304 302 307 304 303 304 303 304 306 306 308 309 310 310 309 312 315 314 314 312 317 319 324 331 334 338 339 340 342 343 344
300 300 301 302 302 302 299 303 303 302 303 304 304 304 303 304 302 302 304 304 304 303 305 306 307 307 309 306 307 311 307 308 308 310 315 326 329 332 337 338 338 340 343
302 301 300 301 302 302 301 303 303 303 303 303 303 303 303 303 302 301 302 302 303 304 301 301 302 302 304 305 305 306 306 307 307 307 309 318 317 321 328 333 335 337 340
302 300 300 300 301 302 302 302 302 302 302 302 302 301 301 301 301 300 300 300 302 301 300 300 301 302 302 303 304 305 305 306 306 307 308 312 314 314 319 324 331 334 336
300 300 299 300 300 300 301 301 301 301 301 301 300 299 299 299 298 298 298 298 298 298 298 297 298 299 300 301 301 303 303 304 304 305 307 309 312 311 314 317 320 329 334
300 299 299 298 300 299 299 300 300 300 299 299 299 298 297 297 296 296 296 296 297 296 296 296 296 296 298 299 299 300 300 301 302 304 305 306 311 312 311 314 316 319 326
300 299 298 298 299 298 299 299 299 299 298 298 298 297 296 295 295 294 295 295 295 295 295 295 295 295 295 296 297 298 299 300 300 300 303 304 306 309 312 311 313 316 318
300 298 298 297 297 297 298 298 298 298 297 297 296 296 295 294 293 293 293 293 294 293 293 293 293 293 294 294 295 296 297 298 299 300 301 302 304 305 308 309 310 311 314
299 298 297 296 296 296 297 296 297 297 296 296 295 295 294 293 292 292 292 292 292 292 292 292 292 291 292 292 294 294 295 295 297 298 300 301 302 303 304 307 309 309 309
299 298 297 296 295 296 296 296 296 295 295 295 294 294 292 292 291 291 291 291 291 291 291 291 290 291 291 292 290 291 294 296 297 298 299 300 302 303 304 305 306 306 310
298 296 296 295 295 295 294 293 293 292 294 293 293 293 292 291 290 290 290 290 290 289 290 289 289 289 290 291 289 291 291 293 295 298 300 302 301 302 304 304 305 305 307
296 296 296 295 294 295 295 295 294 293 293 293 293 292 291 290 290 289 288 288 289 288 288 289 289 287 289 290 286 286 287 289 296 293 294 295 298 298 299 301 303 303 305
295 296 295 295 294 294 294 293 291 290 290 289 290 291 291 290 289 288 288 288 287 288 287 288 288 287 285 287 288 285 283 283 285 291 292 292 295 295 295 295 297 298 299
296 297 295 295 294 294 293 291 290 288 288 290 291 291 290 289 288 288 287 287 287 287 287 287 287 286 285 283 286 287 288 286 282 281 289 289 291 292 293 293 295 297 297
296 295 295 294 293 293 292 291 290 290 290 290 289 288 288 289 288 287 287 286 286 286 286 286 285 285 286 284 284 285 285 285 285 282 280 284 288 290 292 291 291 293 294
296 295 294 293 292 292 291 290 290 289 289 288 287 286 287 287 287 286 286 285 285 284 284 285 285 284 284 284 284 284 283 282 282 283 282 282 282 285 287 289 289 290 292
Wind_Speed
6 7 11 12 12 13 13 11 7 6 6 6 8 9 11 10 9 8 8 7 7 8 8 8 9 8 7 7 9 10 10 9 9 10 11 11 10 9 9 7 6 8 8
7 6 10 9 11 14 14 14 14 13 13 13 13 12 11 11 12 11 12 11 9 8 9 9 9 10 11 9 8 9 10 9 7 7 9 11 11 12 7 5 6 8 7
7 5 10 10 11 11 11 11 13 14 14 13 12 12 13 11 12 12 12 13 13 11 11 11 11 11 11 9 9 10 11 10 7 9 11 9 8 6 7 1 7 8 10
7 7 9 8 11 11 11 12 13 13 12 10 11 12 13 13 14 14 13 14 13 13 13 13 13 14 13 12 11 10 10 10 9 9 10 8 9 5 4 2 7 9 9
7 7 8 8 10 10 11 12 12 12 12 13 12 12 14 13 13 13 14 13 13 13 13 13 13 14 15 15 13 12 11 9 8 10 10 6 5 9 5 5 8 10 7
8 7 8 8 9 9 10 11 11 12 12 12 11 13 12 12 12 13 12 12 12 13 13 13 13 12 13 13 13 14 15 13 10 10 9 9 8 5 8 9 8 9 10
9 8 8 8 7 8 9 9 10 11 12 12 11 11 11 12 12 12 13 13 14 14 15 14 14 14 15 15 14 14 14 15 10 10 9 8 6 7 9 12 13 11 9
9 7 7 7 8 8 8 8 9 10 10 11 11 11 11 11 12 12 13 13 14 14 14 13 14 14 14 15 15 15 15 14 12 12 10 7 8 7 10 12 13 14 12
8 8 7 7 8 8 8 8 8 9 9 10 11 10 10 11 11 12 12 14 14 15 15 14 14 15 15 14 13 14 15 16 12 9 11 7 7 4 10 13 15 14 15
8 7 6 6 6 6 7 8 8 9 9 9 9 6 2 6 7 9 12 13 13 14 13 14 14 16 16 15 12 12 14 17 12 10 8 6 6 7 14 15 16 16 15
8 9 8 8 7 6 7 7 8 7 7 4 5 2 1 5 7 7 9 12 13 14 13 15 15 16 15 12 9 7 12 5 8 7 7 10 12 13 14 16 17 17 16
14 12 9 8 7 6 5 6 5 4 3 3 3 4 4 5 5 6 6 8 11 12 12 15 14 14 11 8 7 9 6 8 7 8 7 12 16 17 16 18 19 19 18
15 11 11 10 9 8 6 4 3 2 2 2 4 5 4 4 5 5 5 5 7 8 7 10 9 7 10 8 8 8 9 8 6 6 9 11 16 19 21 21 22 21 21
16 14 13 11 9 8 5 5 4 3 2 2 3 3 3 3 5 5 5 6 5 6 8 7 5 8 9 10 10 10 10 9 7 6 9 12 14 19 21 22 23 24 24
17 15 14 12 11 9 8 5 5 4 3 3 2 3 3 4 4 4 4 5 5 6 7 8 8 8 9 10 10 10 10 10 10 7 6 13 14 19 22 23 23 24 25
16 17 15 14 12 11 9 8 6 5 5 4 3 3 4 3 3 3 4 5 5 6 7 8 8 8 7 8 9 10 10 10 10 11 8 9 15 18 21 22 23 24 26
16 17 16 14 13 11 10 8 6 5 5 4 3 3 3 3 3 4 3 4 5 6 8 7 8 7 7 7 9 9 9 10 10 12 10 9 10 14 15 20 21 22 23
18 19 16 13 13 12 10 8 6 6 5 4 3 3 3 1 3 3 4 5 6 6 7 8 8 8 8 8 8 8 8 10 12 12 11 10 9 9 10 16 20 21 23
20 19 17 15 14 13 10 7 6 6 5 4 3 3 3 2 3 4 4 4 6 6 7 7 7 8 8 8 9 9 9 10 12 11 12 12 12 10 8 12 14 14 20
19 18 18 14 15 13 8 8 6 5 4 4 4 3 3 0 2 3 4 5 5 5 6 6 9 9 9 9 12 11 10 10 10 10 10 9 9 10 10 10 8 7 13
17 18 19 17 16 11 9 8 7 7 6 6 5 5 4 1 1 3 4 5 5 6 8 9 8 10 8 9 10 8 9 14 12 9 8 5 9 10 9 9 7 7 7
18 17 17 17 16 12 8 7 5 7 5 5 5 4 4 3 4 4 5 6 6 6 9 9 8 7 7 5 7 9 8 8 6 11 10 10 7 9 11 11 11 12 10
19 19 18 17 16 15 12 8 6 4 4 5 6 5 6 5 4 6 7 6 6 7 7 8 7 8 7 6 7 5 6 5 13 5 10 10 9 8 10 14 14 14 16
18 17 18 17 16 15 15 11 12 8 8 7 5 4 3 4 6 6 6 6 7 6 8 8 6 7 8 8 6 6 8 9 5 13 4 11 13 12 12 11 14 12 16
18 17 17 17 16 15 15 13 10 9 5 4 4 4 5 5 6 6 6 6 7 7 8 9 9 8 7 8 7 6 8 9 10 9 18 10 11 10 10 11 14 14 16
16 16 17 18 17 16 16 15 13 11 9 7 7 6 6 5 4 5 6 6 7 8 9 8 9 10 9 9 8 9 9 8 8 9 12 19 17 13 12 13 12 14 14
Wind_Direction
76 58 19 26 41 46 52 54 74 73 74 71 61 56 50 49 41 34 25 13 11 2 356 3 360 357 359 4 353 350 346 344 345 335 334 326 307 290 292 307 296 276 233
94 66 43 38 41 42 45 42 55 63 68 70 66 62 60 56 54 49 42 34 23 4 354 353 352 355 10 355 346 341 338 339 334 329 326 303 265 250 249 297 297 288 324
96 80 73 44 51 52 48 51 51 47 50 51 55 59 56 47 42 36 31 23 18 15 6 356 349 350 359 358 350 347 345 331 325 332 313 278 279 232 199 257 288 268 274
97 83 67 55 63 61 59 60 56 54 55 50 49 47 46 46 38 36 34 29 22 17 12 6 2 3 358 351 345 340 336 336 327 325 302 316 313 134 162 276 290 290 266
110 96 76 68 68 69 72 73 69 67 67 66 64 61 53 46 45 45 42 34 27 20 14 4 2 4 0 353 346 337 331 332 331 303 296 290 321 317 15 314 297 297 277
126 117 92 79 77 74 77 78 76 76 76 74 71 72 62 52 46 39 34 28 22 18 10 8 3 357 355 351 354 350 342 330 320 302 305 311 314 309 331 314 295 292 296
138 123 102 85 83 79 76 74 76 74 74 74 71 69 62 53 46 36 31 24 17 11 6 4 7 1 358 358 354 351 347 346 313 303 294 286 290 340 331 311 302 295 288
137 133 121 97 88 82 78 75 78 79 78 76 72 65 61 54 48 42 33 25 20 12 4 3 358 353 349 348 346 345 343 342 317 299 293 294 298 312 300 302 301 300 289
146 151 155 140 110 91 81 79 83 82 76 69 60 57 57 50 47 39 34 23 19 12 4 0 352 346 341 339 335 335 335 325 305 289 287 286 274 313 298 297 300 301 301
167 166 160 157 161 140 116 85 85 86 83 77 70 66 48 97 48 53 30 21 17 10 1 359 352 346 340 330 327 328 325 307 280 318 305 281 312 309 296 293 292 296 297
182 182 175 175 170 150 134 118 114 103 98 117 126 61 174 44 32 25 41 15 13 6 360 359 352 344 334 319 316 319 297 309 325 306 298 310 353 326 299 293 290 289 289
192 188 182 179 171 162 152 152 133 135 93 78 55 39 33 36 32 11 32 16 8 11 358 356 353 342 351 341 333 326 334 332 308 295 289 314 317 302 295 290 288 290 288
195 187 186 181 174 172 160 167 169 157 153 113 59 33 36 32 20 21 12 6 0 10 360 354 351 353 340 334 331 326 326 318 315 308 299 317 316 305 295 286 284 283 283
197 188 187 182 180 175 169 189 171 164 163 134 75 35 33 39 27 17 12 359 356 358 347 343 339 333 333 328 326 320 320 318 314 314 302 300 301 295 291 291 288 279 279
198 192 188 182 182 175 188 179 177 159 178 140 135 73 38 52 31 9 3 351 347 349 344 338 335 335 330 329 324 318 313 308 302 297 294 297 294 290 288 285 282 285 279
195 195 188 187 185 178 186 185 177 175 160 167 131 93 76 43 32 5 359 349 340 350 341 327 326 323 320 318 313 314 310 305 301 293 288 291 290 284 284 284 284 281 281
197 191 191 188 185 183 184 182 180 174 178 163 143 144 111 55 24 359 347 335 345 340 318 318 318 317 319 314 310 309 305 304 299 294 289 282 287 282 277 285 284 282 281
194 192 187 188 184 185 183 181 182 172 180 165 163 177 154 83 16 348 345 343 343 323 325 323 326 325 317 316 311 304 297 289 282 280 277 275 274 284 290 293 291 292 292
195 190 187 186 186 184 183 183 181 178 189 171 185 198 148 43 12 346 338 322 324 316 317 316 319 318 308 309 300 300 294 289 278 273 276 276 277 278 278 281 278 278 282
194 190 189 186 187 184 176 185 180 177 189 179 205 195 158 115 351 328 322 318 310 304 303 304 304 307 305 306 313 304 287 280 278 275 272 274 270 272 270 272 277 277 265
191 191 192 188 189 181 185 186 190 194 190 190 200 176 192 183 305 303 296 288 286 285 291 296 301 310 313 321 309 318 298 281 265 250 249 288 311 288 282 281 290 278 278
190 194 192 193 190 190 188 190 200 191 192 203 184 185 184 202 234 253 266 275 278 292 290 291 300 304 308 315 320 298 322 313 35 344 299 280 305 315 302 301 304 298 297
197 193 194 193 191 190 192 176 174 165 204 198 201 197 191 207 226 243 254 273 292 288 285 294 294 299 296 306 302 293 310 301 332 251 321 289 292 326 314 304 298 296 289
197 192 195 195 194 191 184 185 193 201 202 199 181 169 199 228 243 250 257 267 272 277 277 281 286 289 292 291 294 257 258 280 310 312 281 309 295 285 304 297 292 305 294
193 192 193 193 196 189 188 192 191 204 201 185 186 213 235 240 241 249 258 271 278 279 277 281 282 279 279 276 272 277 270 262 255 264 292 282 283 281 289 299 292 290 298
187 191 192 192 194 192 194 198 198 197 191 189 199 212 221 229 245 251 259 262 272 275 277 288 289 284 277 275 273 268 257 257 267 276 283 289 284 284 283 280 287 280 270